Location: 22
(39.7117°N, 89.5929°W)
Time: 10:18:18
(UTC-05:00)

Transit 2A - Pass Details

Date: 03 August 2024
Orbit: 590 x 961 km, 66.7° (Epoch: 13 September)

Event Time Altitude Azimuth Distance (km) Brightness Sun altitude
Rises 07:45:18 0° 267° (W) 3,305 8.7 18.6°
Reaches altitude 10° 07:48:59 10° 293° (WNW) 2,462 8.2 19.3°
Maximum altitude 07:51:52 14° 323° (NW) 2,253 8.2 19.9°
Drops below altitude 10° 07:54:52 10° 354° (N) 2,582 8.8 20.5°
Sets 07:58:55 0° 19° (NNE) 3,589 9.8 21.2°
